KUIPER-00436

导读

KUIPER-00436(NORAD编号68939)是亚马逊柯伊伯(Kuiper)卫星互联网项目的运营卫星之一,属于近地轨道(LEO)卫星,是柯伊伯计划大规模组网的组成部分。 该项目目标是部署数千颗低轨卫星,构建覆盖全球的高速宽带网络,提供低延迟互联网接入服务,直接对标SpaceX星链(Starlink)。按照FCC要求,亚马逊需在2026年前完成过半卫星部署,KUIPER-00436是项目推进组网建设的一颗标准卫星,助力项目实现全球覆盖的商用目标。

Basic Information
目录编号:
68939
目录名称:
KUIPER-00436
国际标识:
2026-098W
轨道中心:
EARTH
卫星名称:
KUIPER-00436
卫星全名:
KUIPER-00436
卫星状态:
在轨 (已飞行128 天)
发射日期:
2026-04-30 UTC
国别 :
美国 (US)
星等 :
--
Orbit Information
数据来源 国际轨道数据 AOE轨道数据
星历时间 2026-09-05T04:56:25+0800
12小时前
查看轨道信息
2026-09-02T12:00:00+0800
3天前
查看轨道信息
半长轴 7007.694km 7007.756km
偏心率 0.0000669 0.000073
轨道倾角 51.900° 51.898°
近地点辐角 117.455° 78.288°
升交点赤经 65.793° 77.761°
平近点角 242.648° 257.064°
近地点 629.088km 629.107km
远地点 630.026km 630.131km
周期 97.302分钟 97.303分钟
每日圈数 14.799264 14.799066
Detailed Information
使用方式:
暂无
2D Orbit Map
3D Orbit Map
Orbit Altitude Analysis Chart
Orbit Inclination Analysis Chart
Orbit Comprehensive Analysis Chart
View Comprehensive Chart
Conjunction Data List
Event ID Objects TCA Miss Dist (km) Collision Risk Probability Collision Risk Index (CRI) Action
CDM_260905-175602-051106-893924
2026-09-05T
17:56:52+0000
2.109 km
极远距离
1.152222E-6 低风险 0.36